Time,TemperatureF,DewpointF,PressureIn,WindDirection,WindDirectionDegrees,WindSpeedMPH,WindSpeedGustMPH,Humidity,HourlyPrecipIn,Conditions,Clouds,dailyrainin,SolarRadiationWatts/m^2,SoftwareType,DateUTC
2013-04-22 00:00:00,71.8,69.3,30.06,SSW,202,0.0,0.0,92,0.00,SCT,BKN,0.00,0.0,WeatherDisplay:10.37,2013-04-22 10:00:00,
2013-04-22 00:05:00,71.6,69.2,30.06,South,180,0.0,0.0,92,0.00,SCT,BKN,0.00,0.0,WeatherDisplay:10.37,2013-04-22 10:05:00,
2013-04-22 00:07:00,71.6,69.2,30.06,South,180,0.0,0.0,92,0.00,SCT,BKN,0.00,0.0,WeatherDisplay:10.37,2013-04-22 10:07:00,
2013-04-22 00:10:00,71.6,69.2,30.06,South,180,0.0,0.0,92,0.00,SCT,BKN,0.00,0.0,WeatherDisplay:10.37,2013-04-22 10:10:00,
2013-04-22 00:15:00,71.6,69.2,30.06,South,180,0.0,0.0,92,0.00,SCT,BKN,0.00,0.0,WeatherDisplay:10.37,2013-04-22 10:15:00,
2013-04-22 05:32:00,71.6,69.2,30.03,South,180,0.0,0.0,92,0.04,RA,BKN,0.04,0.0,WeatherDisplay:10.37,2013-04-22 15:32:00,
2013-04-22 05:37:00,70.5,68.7,30.03,South,180,0.0,0.0,94,0.04,RA,BKN,0.04,0.0,WeatherDisplay:10.37,2013-04-22 15:37:00,
2013-04-22 05:42:00,70.3,68.5,30.03,South,180,0.0,1.2,94,0.04,RA,BKN,0.04,0.0,WeatherDisplay:10.37,2013-04-22 15:42:00,
2013-04-22 05:47:00,70.2,68.7,30.03,South,180,0.0,0.0,95,0.04,SCT,BKN,0.04,0.0,WeatherDisplay:10.37,2013-04-22 15:47:00,
2013-04-22 05:52:00,70.0,68.5,30.03,South,180,0.0,0.0,95,0.04,SCT,BKN,0.04,0.0,WeatherDisplay:10.37,2013-04-22 15:52:00,
2013-04-22 05:57:00,70.0,68.5,30.03,South,180,0.0,0.0,95,0.04,SCT,BKN,0.04,0.0,WeatherDisplay:10.37,2013-04-22 15:57:00,
2013-04-22 06:02:00,69.8,68.3,30.03,South,180,0.0,0.0,95,0.04,SCT,BKN,0.04,0.0,WeatherDisplay:10.37,2013-04-22 16:02:00,
2013-04-22 06:07:00,69.8,68.6,30.03,South,180,0.0,0.0,96,0.04,SCT,BKN,0.04,0.0,WeatherDisplay:10.37,2013-04-22 16:07:00,
2013-04-22 06:12:00,69.8,68.6,30.03,South,180,0.0,0.0,96,0.04,SCT,BKN,0.04,0.0,WeatherDisplay:10.37,2013-04-22 16:12:00,
2013-04-22 06:17:00,69.8,68.6,30.03,South,180,0.0,0.0,96,0.04,SCT,BKN,0.04,0.0,WeatherDisplay:10.37,2013-04-22 16:17:00,
2013-04-22 06:22:00,69.8,68.6,30.03,South,180,0.0,0.0,96,0.04,SCT,BKN,0.04,0.0,WeatherDisplay:10.37,2013-04-22 16:22:00,
2013-04-22 06:27:00,69.8,68.6,30.03,South,180,0.0,0.0,96,0.04,SCT,BKN,0.04,0.0,WeatherDisplay:10.37,2013-04-22 16:27:00,
2013-04-22 06:32:00,69.8,68.6,30.06,South,180,0.0,0.0,96,0.00,SCT,BKN,0.04,0.0,WeatherDisplay:10.37,2013-04-22 16:32:00,
2013-04-22 06:37:00,70.0,68.8,30.06,South,180,0.0,0.0,96,0.00,SCT,BKN,0.04,0.0,WeatherDisplay:10.37,2013-04-22 16:37:00,
2013-04-22 06:42:00,70.0,69.1,30.06,South,180,0.0,0.0,97,0.00,SCT,BKN,0.04,0.0,WeatherDisplay:10.37,2013-04-22 16:42:00,
2013-04-22 06:47:00,70.2,69.3,30.06,East,90,0.0,1.2,97,0.00,SCT,BKN,0.04,0.0,WeatherDisplay:10.37,2013-04-22 16:47:00,
2013-04-22 06:52:00,70.2,69.3,30.06,East,90,0.0,0.0,97,0.00,SCT,BKN,0.04,0.0,WeatherDisplay:10.37,2013-04-22 16:52:00,
2013-04-22 06:57:00,70.2,69.3,30.06,East,90,0.0,0.0,97,0.00,SCT,BKN,0.04,0.0,WeatherDisplay:10.37,2013-04-22 16:57:00,
2013-04-22 07:02:00,70.3,69.4,30.06,East,90,0.0,0.0,97,0.00,SCT,BKN,0.04,0.0,WeatherDisplay:10.37,2013-04-22 17:02:00,
2013-04-22 07:07:00,70.3,69.4,30.06,East,90,0.0,0.0,97,0.00,SCT,BKN,0.04,0.0,WeatherDisplay:10.37,2013-04-22 17:07:00,
2013-04-22 07:12:00,70.5,69.6,30.06,East,90,0.0,0.0,97,0.00,SCT,BKN,0.04,0.0,WeatherDisplay:10.37,2013-04-22 17:12:00,
2013-04-22 07:17:00,70.7,69.8,30.06,East,90,0.0,0.0,97,0.00,SCT,BKN,0.04,0.0,WeatherDisplay:10.37,2013-04-22 17:17:00,
2013-04-22 07:22:00,70.9,70.0,30.06,East,90,0.0,0.0,97,0.00,SCT,BKN,0.04,0.0,WeatherDisplay:10.37,2013-04-22 17:22:00,
2013-04-22 07:27:00,71.2,70.3,30.06,East,90,0.0,0.0,97,0.00,SCT,BKN,0.04,0.0,WeatherDisplay:10.37,2013-04-22 17:27:00,
2013-04-22 07:32:00,71.4,70.5,30.03,East,90,0.0,0.0,97,0.00,SCT,BKN,0.04,0.0,WeatherDisplay:10.37,2013-04-22 17:32:00,
2013-04-22 07:37:00,71.6,70.7,30.03,East,90,0.0,0.0,97,0.00,SCT,BKN,0.04,0.0,WeatherDisplay:10.37,2013-04-22 17:37:00,
2013-04-22 07:42:00,71.8,70.9,30.03,East,90,0.0,0.0,97,0.00,SCT,BKN,0.04,0.0,WeatherDisplay:10.37,2013-04-22 17:42:00,
2013-04-22 07:47:00,72.0,71.1,30.06,East,90,0.0,0.0,97,0.00,SCT,BKN,0.04,0.0,WeatherDisplay:10.37,2013-04-22 17:47:00,
2013-04-22 07:52:00,72.3,71.4,30.06,East,90,0.0,0.0,97,0.00,SCT,BKN,0.04,0.0,WeatherDisplay:10.37,2013-04-22 17:52:00,
2013-04-22 07:57:00,72.3,71.4,30.06,East,90,0.0,0.0,97,0.00,SCT,BKN,0.04,0.0,WeatherDisplay:10.37,2013-04-22 17:57:00,
2013-04-22 08:02:00,72.1,70.9,30.06,SSW,202,0.9,1.2,96,0.00,SCT,BKN,0.04,0.0,WeatherDisplay:10.37,2013-04-22 18:02:00,
2013-04-22 08:07:00,72.1,70.9,30.06,North,0,0.0,4.5,96,0.00,SCT,BKN,0.04,0.0,WeatherDisplay:10.37,2013-04-22 18:07:00,
2013-04-22 08:12:00,72.1,70.3,30.06,SW,225,2.4,3.5,94,0.00,SCT,BKN,0.04,0.0,WeatherDisplay:10.37,2013-04-22 18:12:00,
2013-04-22 08:17:00,72.3,70.5,30.06,ESE,112,0.0,1.2,94,0.00,SCT,BKN,0.04,0.0,WeatherDisplay:10.37,2013-04-22 18:17:00,
2013-04-22 08:22:00,72.5,70.7,30.06,WNW,292,0.0,1.2,94,0.00,SCT,BKN,0.04,0.0,WeatherDisplay:10.37,2013-04-22 18:22:00,
2013-04-22 08:27:00,73.0,71.5,30.06,NNW,338,0.0,0.0,95,0.00,SCT,BKN,0.04,125.0,WeatherDisplay:10.37,2013-04-22 18:27:00,
2013-04-22 08:32:00,73.8,72.2,30.06,NNW,338,0.0,1.2,95,0.00,SCT,BKN,0.04,125.0,WeatherDisplay:10.37,2013-04-22 18:32:00,
2013-04-22 08:37:00,73.9,72.1,30.06,NNW,338,0.0,1.2,94,0.00,SCT,BKN,0.04,125.0,WeatherDisplay:10.37,2013-04-22 18:37:00,
2013-04-22 08:42:00,73.8,71.6,30.06,South,180,0.0,1.2,93,0.00,SCT,BKN,0.04,0.0,WeatherDisplay:10.37,2013-04-22 18:42:00,
2013-04-22 08:47:00,73.8,71.6,30.06,SW,225,0.0,1.2,93,0.00,SCT,BKN,0.04,0.0,WeatherDisplay:10.37,2013-04-22 18:47:00,
2013-04-22 08:52:00,73.8,70.6,30.06,South,180,2.9,5.8,90,0.00,SCT,BKN,0.04,0.0,WeatherDisplay:10.37,2013-04-22 18:52:00,
2013-04-22 08:57:00,74.3,71.2,30.06,East,90,2.0,3.3,90,0.00,SCT,BKN,0.04,125.0,WeatherDisplay:10.37,2013-04-22 18:57:00,
2013-04-22 09:02:00,74.3,70.5,30.09,WNW,292,2.9,2.9,88,0.00,SCT,BKN,0.04,125.0,WeatherDisplay:10.37,2013-04-22 19:02:00,
2013-04-22 09:07:00,74.5,70.4,30.09,South,180,3.1,6.9,87,0.00,SCT,BKN,0.04,125.0,WeatherDisplay:10.37,2013-04-22 19:07:00,
2013-04-22 09:12:00,74.7,70.2,30.09,SSW,202,3.1,5.8,86,0.00,SCT,BKN,0.04,125.0,WeatherDisplay:10.37,2013-04-22 19:12:00,
2013-04-22 09:17:00,75.0,70.2,30.06,SSW,202,3.3,5.8,85,0.00,SCT,BKN,0.04,125.0,WeatherDisplay:10.37,2013-04-22 19:17:00,
2013-04-22 09:22:00,75.7,70.9,30.06,East,90,1.2,3.1,85,0.00,SCT,BKN,0.04,250.0,WeatherDisplay:10.37,2013-04-22 19:22:00,
2013-04-22 09:27:00,75.6,70.0,30.06,East,90,2.6,5.8,83,0.00,SCT,BKN,0.04,0.0,WeatherDisplay:10.37,2013-04-22 19:27:00,
2013-04-22 09:32:00,75.2,69.7,30.09,SSW,202,2.9,5.8,83,0.00,SCT,BKN,0.04,125.0,WeatherDisplay:10.37,2013-04-22 19:32:00,
2013-04-22 09:37:00,75.0,69.1,30.09,West,270,8.1,10.4,82,0.04,RA,BKN,0.08,0.0,WeatherDisplay:10.37,2013-04-22 19:37:00,
2013-04-22 09:42:00,73.6,69.1,30.09,WSW,248,4.3,8.1,86,0.04,RA,BKN,0.08,125.0,WeatherDisplay:10.37,2013-04-22 19:42:00,
2013-04-22 09:47:00,73.8,69.6,30.12,SSW,202,3.8,6.0,87,0.04,SCT,BKN,0.08,125.0,WeatherDisplay:10.37,2013-04-22 19:47:00,
2013-04-22 09:52:00,73.8,70.0,30.12,SSE,158,4.7,8.1,88,0.04,SCT,BKN,0.08,125.0,WeatherDisplay:10.37,2013-04-22 19:52:00,
2013-04-22 09:57:00,73.9,69.8,30.12,SE,135,3.3,5.8,87,0.04,SCT,BKN,0.08,125.0,WeatherDisplay:10.37,2013-04-22 19:57:00,
2013-04-22 10:02:00,74.3,69.8,30.12,ENE,68,2.6,3.5,86,0.04,SCT,BKN,0.08,250.0,WeatherDisplay:10.37,2013-04-22 20:02:00,
2013-04-22 10:07:00,74.8,70.0,30.12,WSW,248,2.4,5.8,85,0.04,SCT,BKN,0.08,125.0,WeatherDisplay:10.37,2013-04-22 20:07:00,
2013-04-22 10:12:00,75.2,69.7,30.12,WNW,292,2.9,5.8,83,0.04,SCT,BKN,0.08,250.0,WeatherDisplay:10.37,2013-04-22 20:12:00,
2013-04-22 10:17:00,75.9,70.4,30.09,SSW,202,0.9,5.8,83,0.04,SCT,BKN,0.08,250.0,WeatherDisplay:10.37,2013-04-22 20:17:00,
2013-04-22 10:22:00,76.1,69.5,30.09,WSW,248,2.4,3.5,80,0.04,SCT,BKN,0.08,125.0,WeatherDisplay:10.37,2013-04-22 20:22:00,
2013-04-22 10:27:00,75.7,68.8,30.09,SSE,158,3.6,5.8,79,0.04,SCT,BKN,0.08,0.0,WeatherDisplay:10.37,2013-04-22 20:27:00,
2013-04-22 10:32:00,75.6,69.0,30.09,SSW,202,3.6,6.9,80,0.04,SCT,BKN,0.08,250.0,WeatherDisplay:10.37,2013-04-22 20:32:00,
2013-04-22 10:37:00,76.1,69.5,30.09,SSE,158,3.1,4.9,80,0.00,SCT,BKN,0.08,250.0,WeatherDisplay:10.37,2013-04-22 20:37:00,
2013-04-22 10:42:00,76.5,69.5,30.09,NNW,338,2.9,6.9,79,0.00,SCT,BKN,0.08,375.0,WeatherDisplay:10.37,2013-04-22 20:42:00,
2013-04-22 10:47:00,76.8,69.4,30.09,SSW,202,2.9,5.8,78,0.00,SCT,BKN,0.08,250.0,WeatherDisplay:10.37,2013-04-22 20:47:00,
2013-04-22 10:52:00,76.8,69.1,30.09,NW,315,3.3,4.6,77,0.00,SCT,BKN,0.08,375.0,WeatherDisplay:10.37,2013-04-22 20:52:00,
2013-04-22 10:57:00,76.6,68.5,30.09,SW,225,5.6,8.7,76,0.00,SCT,BKN,0.08,250.0,WeatherDisplay:10.37,2013-04-22 20:57:00,
2013-04-22 11:02:00,76.5,69.1,30.12,SW,225,3.8,8.1,78,0.00,SCT,BKN,0.08,125.0,WeatherDisplay:10.37,2013-04-22 21:02:00,
2013-04-22 11:07:00,76.5,69.1,30.12,SSW,202,6.0,6.4,78,0.00,SCT,BKN,0.08,125.0,WeatherDisplay:10.37,2013-04-22 21:07:00,
2013-04-22 11:12:00,76.3,68.5,30.12,WSW,248,3.8,4.6,77,0.00,SCT,BKN,0.08,250.0,WeatherDisplay:10.37,2013-04-22 21:12:00,
2013-04-22 11:17:00,76.6,68.9,30.09,SSW,202,4.9,5.8,77,0.00,SCT,BKN,0.08,250.0,WeatherDisplay:10.37,2013-04-22 21:17:00,
2013-04-22 11:22:00,76.6,69.3,30.09,SW,225,4.3,6.9,78,0.00,SCT,BKN,0.08,125.0,WeatherDisplay:10.37,2013-04-22 21:22:00,
2013-04-22 11:27:00,76.5,68.7,30.09,SW,225,5.4,6.9,77,0.00,SCT,BKN,0.08,125.0,WeatherDisplay:10.37,2013-04-22 21:27:00,
2013-04-22 11:32:00,76.8,69.4,30.09,South,180,2.9,6.7,78,0.00,SCT,BKN,0.08,375.0,WeatherDisplay:10.37,2013-04-22 21:32:00,
2013-04-22 11:37:00,76.8,69.1,30.09,SE,135,2.0,6.4,77,0.00,SCT,BKN,0.08,125.0,WeatherDisplay:10.37,2013-04-22 21:37:00,
2013-04-22 11:42:00,76.5,68.7,30.09,SSW,202,8.5,10.4,77,0.00,SCT,BKN,0.08,125.0,WeatherDisplay:10.37,2013-04-22 21:42:00,
2013-04-22 11:47:00,75.6,69.0,30.09,SSW,202,6.7,9.2,80,0.00,SCT,BKN,0.08,125.0,WeatherDisplay:10.37,2013-04-22 21:47:00,
2013-04-22 11:52:00,76.3,69.7,30.09,South,180,4.7,6.9,80,0.00,SCT,BKN,0.08,1500.0,WeatherDisplay:10.37,2013-04-22 21:52:00,
2013-04-22 11:57:00,78.3,71.2,30.09,South,180,3.6,5.8,79,0.00,SCT,BKN,0.08,1625.0,WeatherDisplay:10.37,2013-04-22 21:57:00,
2013-04-22 12:02:00,79.2,70.5,30.06,South,180,3.8,11.5,75,0.00,SCT,BKN,0.08,375.0,WeatherDisplay:10.37,2013-04-22 22:02:00,
2013-04-22 12:07:00,79.5,70.5,30.06,WSW,248,3.6,10.4,74,0.00,SCT,BKN,0.08,1625.0,WeatherDisplay:10.37,2013-04-22 22:07:00,
2013-04-22 12:12:00,79.5,69.3,30.06,SW,225,4.7,7.4,71,0.00,SCT,BKN,0.08,500.0,WeatherDisplay:10.37,2013-04-22 22:12:00,
2013-04-22 12:17:00,79.3,69.5,30.06,South,180,3.8,8.7,72,0.00,SCT,BKN,0.08,500.0,WeatherDisplay:10.37,2013-04-22 22:17:00,
2013-04-22 12:22:00,79.2,69.4,30.06,SSW,202,4.7,9.2,72,0.00,SCT,BKN,0.08,625.0,WeatherDisplay:10.37,2013-04-22 22:22:00,
2013-04-22 12:27:00,78.3,68.1,30.06,South,180,8.7,10.4,71,0.00,SCT,BKN,0.08,250.0,WeatherDisplay:10.37,2013-04-22 22:27:00,
2013-04-22 12:32:00,79.5,69.7,30.06,South,180,5.6,9.2,72,0.00,SCT,BKN,0.08,250.0,WeatherDisplay:10.37,2013-04-22 22:32:00,
2013-04-22 12:37:00,79.7,70.7,30.06,South,180,1.6,5.8,74,0.00,SCT,BKN,0.08,375.0,WeatherDisplay:10.37,2013-04-22 22:37:00,
2013-04-22 12:42:00,79.5,69.7,30.06,SSW,202,5.4,5.9,72,0.00,SCT,BKN,0.08,250.0,WeatherDisplay:10.37,2013-04-22 22:42:00,
2013-04-22 12:47:00,78.4,68.7,30.06,South,180,5.9,8.1,72,0.00,SCT,BKN,0.08,250.0,WeatherDisplay:10.37,2013-04-22 22:47:00,
2013-04-22 12:52:00,78.3,68.9,30.06,SW,225,3.6,5.8,73,0.00,SCT,BKN,0.08,125.0,WeatherDisplay:10.37,2013-04-22 22:52:00,
2013-04-22 12:57:00,78.1,68.7,30.06,SW,225,5.9,10.5,73,0.00,SCT,BKN,0.08,500.0,WeatherDisplay:10.37,2013-04-22 22:57:00,
2013-04-22 13:02:00,78.3,68.9,30.06,WSW,248,7.1,9.2,73,0.00,SCT,BKN,0.08,375.0,WeatherDisplay:10.37,2013-04-22 23:02:00,
2013-04-22 13:07:00,78.6,68.8,30.06,West,270,4.3,9.2,72,0.00,SCT,BKN,0.08,500.0,WeatherDisplay:10.37,2013-04-22 23:07:00,
2013-04-22 13:12:00,78.4,68.3,30.06,SSW,202,6.9,9.8,71,0.00,SCT,BKN,0.08,250.0,WeatherDisplay:10.37,2013-04-22 23:12:00,
2013-04-22 13:17:00,78.1,67.9,30.06,SW,225,6.4,8.1,71,0.00,SCT,BKN,0.08,375.0,WeatherDisplay:10.37,2013-04-22 23:17:00,
2013-04-22 13:22:00,79.3,69.5,30.06,NNW,338,4.5,7.8,72,0.00,SCT,BKN,0.08,1625.0,WeatherDisplay:10.37,2013-04-22 23:22:00,
2013-04-22 13:27:00,80.4,69.3,30.06,SSW,202,5.6,6.9,69,0.00,SCT,BKN,0.08,250.0,WeatherDisplay:10.37,2013-04-22 23:27:00,
2013-04-22 13:32:00,81.0,69.4,30.06,South,180,2.4,6.2,68,0.00,SCT,BKN,0.08,1375.0,WeatherDisplay:10.37,2013-04-22 23:32:00,
2013-04-22 13:37:00,80.6,68.2,30.06,SSW,202,6.9,9.2,66,0.00,SCT,BKN,0.08,500.0,WeatherDisplay:10.37,2013-04-22 23:37:00,
2013-04-22 13:42:00,80.2,68.3,30.06,West,270,2.4,10.4,67,0.00,SCT,BKN,0.08,375.0,WeatherDisplay:10.37,2013-04-22 23:42:00,
2013-04-22 13:47:00,80.2,67.4,30.06,SSW,202,6.7,9.2,65,0.00,SCT,BKN,0.08,500.0,WeatherDisplay:10.37,2013-04-22 23:47:00,
2013-04-22 13:52:00,79.2,65.9,30.06,South,180,5.4,10.5,64,0.00,SCT,BKN,0.08,500.0,WeatherDisplay:10.37,2013-04-22 23:52:00,
2013-04-22 13:57:00,80.4,68.5,30.06,SW,225,3.8,4.6,67,0.00,SCT,BKN,0.08,875.0,WeatherDisplay:10.37,2013-04-22 23:57:00,
2013-04-22 14:02:00,80.8,68.4,30.03,SSW,202,8.7,11.5,66,0.00,SCT,BKN,0.08,250.0,WeatherDisplay:10.37,2013-04-23 00:02:00,
2013-04-22 14:07:00,79.2,67.7,30.03,SSW,202,4.0,11.5,68,0.00,SCT,BKN,0.08,125.0,WeatherDisplay:10.37,2013-04-23 00:07:00,
2013-04-22 14:12:00,78.3,68.1,30.03,SW,225,4.5,9.2,71,0.00,SCT,BKN,0.08,250.0,WeatherDisplay:10.37,2013-04-23 00:12:00,
2013-04-22 14:17:00,78.3,68.5,30.03,SW,225,2.2,3.5,72,0.00,SCT,BKN,0.08,125.0,WeatherDisplay:10.37,2013-04-23 00:17:00,
2013-04-22 14:22:00,79.2,68.9,30.03,SSE,158,3.3,8.1,71,0.00,SCT,BKN,0.08,1250.0,WeatherDisplay:10.37,2013-04-23 00:22:00,
2013-04-22 14:27:00,80.8,68.8,30.03,SSW,202,4.5,6.2,67,0.00,SCT,BKN,0.08,375.0,WeatherDisplay:10.37,2013-04-23 00:27:00,
2013-04-22 14:32:00,79.3,67.4,30.03,SW,225,7.6,9.2,67,0.00,SCT,BKN,0.08,750.0,WeatherDisplay:10.37,2013-04-23 00:32:00,
2013-04-22 14:37:00,79.9,68.4,30.03,SSW,202,4.7,8.1,68,0.00,SCT,BKN,0.08,375.0,WeatherDisplay:10.37,2013-04-23 00:37:00,
2013-04-22 14:42:00,81.7,69.7,30.03,SSW,202,4.5,6.9,67,0.00,SCT,BKN,0.08,1250.0,WeatherDisplay:10.37,2013-04-23 00:42:00,
2013-04-22 14:47:00,82.0,69.6,30.03,SW,225,4.0,7.1,66,0.00,SCT,BKN,0.08,750.0,WeatherDisplay:10.37,2013-04-23 00:47:00,
2013-04-22 14:52:00,80.4,68.5,30.03,NW,315,3.1,4.6,67,0.00,SCT,BKN,0.08,250.0,WeatherDisplay:10.37,2013-04-23 00:52:00,
2013-04-22 14:57:00,80.8,68.8,30.03,SW,225,6.2,8.1,67,0.00,SCT,BKN,0.08,1125.0,WeatherDisplay:10.37,2013-04-23 00:57:00,
2013-04-22 15:02:00,81.0,68.1,30.03,SW,225,4.5,6.9,65,0.00,SCT,BKN,0.08,1125.0,WeatherDisplay:10.37,2013-04-23 01:02:00,
2013-04-22 15:07:00,82.0,68.2,30.03,NW,315,3.8,9.2,63,0.00,SCT,BKN,0.08,750.0,WeatherDisplay:10.37,2013-04-23 01:07:00,
2013-04-22 15:12:00,83.3,68.4,30.03,South,180,6.0,8.1,61,0.00,SCT,BKN,0.08,1000.0,WeatherDisplay:10.37,2013-04-23 01:12:00,
2013-04-22 15:17:00,83.1,68.3,30.03,SW,225,6.2,8.1,61,0.00,SCT,BKN,0.08,1000.0,WeatherDisplay:10.37,2013-04-23 01:17:00,
2013-04-22 15:22:00,83.1,66.8,30.03,SW,225,5.9,8.1,58,0.00,SCT,BKN,0.08,875.0,WeatherDisplay:10.37,2013-04-23 01:22:00,
2013-04-22 15:27:00,83.1,67.8,30.03,SSW,202,5.4,8.1,60,0.00,SCT,BKN,0.08,875.0,WeatherDisplay:10.37,2013-04-23 01:27:00,
2013-04-22 15:32:00,82.4,67.6,30.03,SW,225,2.6,8.1,61,0.00,SCT,BKN,0.08,250.0,WeatherDisplay:10.37,2013-04-23 01:32:00,
2013-04-22 15:37:00,82.9,68.1,30.03,SW,225,2.9,5.8,61,0.00,SCT,BKN,0.08,250.0,WeatherDisplay:10.37,2013-04-23 01:37:00,
2013-04-22 15:42:00,81.5,67.7,30.03,South,180,6.2,6.9,63,0.00,SCT,BKN,0.08,250.0,WeatherDisplay:10.37,2013-04-23 01:42:00,
2013-04-22 15:47:00,80.2,67.4,30.03,SSW,202,4.0,5.8,65,0.00,SCT,BKN,0.08,250.0,WeatherDisplay:10.37,2013-04-23 01:47:00,
2013-04-22 15:52:00,79.9,67.9,30.03,SSW,202,2.4,4.6,67,0.00,SCT,BKN,0.08,250.0,WeatherDisplay:10.37,2013-04-23 01:52:00,
2013-04-22 15:57:00,79.0,67.5,30.03,SW,225,5.6,7.1,68,0.00,SCT,BKN,0.08,125.0,WeatherDisplay:10.37,2013-04-23 01:57:00,
2013-04-22 16:02:00,78.3,67.3,30.00,SSW,202,3.8,5.8,69,0.00,SCT,BKN,0.08,125.0,WeatherDisplay:10.37,2013-04-23 02:02:00,
2013-04-22 16:07:00,78.1,67.5,30.00,SE,135,4.0,4.6,70,0.00,SCT,BKN,0.08,125.0,WeatherDisplay:10.37,2013-04-23 02:07:00,
2013-04-22 16:12:00,78.1,67.5,30.00,SSW,202,2.2,3.5,70,0.00,SCT,BKN,0.08,125.0,WeatherDisplay:10.37,2013-04-23 02:12:00,
2013-04-22 16:17:00,77.9,67.3,30.03,South,180,4.5,5.8,70,0.00,SCT,BKN,0.08,250.0,WeatherDisplay:10.37,2013-04-23 02:17:00,
2013-04-22 16:22:00,77.9,67.3,30.03,SSW,202,3.8,4.9,70,0.00,SCT,BKN,0.08,250.0,WeatherDisplay:10.37,2013-04-23 02:22:00,
2013-04-22 16:27:00,77.7,67.2,30.03,South,180,3.1,4.6,70,0.00,SCT,BKN,0.08,125.0,WeatherDisplay:10.37,2013-04-23 02:27:00,
2013-04-22 16:32:00,77.7,67.6,30.03,SW,225,1.2,2.6,71,0.00,SCT,BKN,0.08,0.0,WeatherDisplay:10.37,2013-04-23 02:32:00,
2013-04-22 16:37:00,77.2,66.6,30.03,South,180,2.2,3.5,70,0.00,SCT,BKN,0.08,0.0,WeatherDisplay:10.37,2013-04-23 02:37:00,
2013-04-22 16:42:00,77.2,67.0,30.03,SW,225,1.6,3.5,71,0.00,SCT,BKN,0.08,0.0,WeatherDisplay:10.37,2013-04-23 02:42:00,
2013-04-22 16:47:00,77.0,66.9,30.00,South,180,2.9,3.5,71,0.00,SCT,BKN,0.08,0.0,WeatherDisplay:10.37,2013-04-23 02:47:00,
2013-04-22 16:52:00,77.0,66.5,30.00,SSW,202,2.6,4.6,70,0.00,SCT,BKN,0.08,0.0,WeatherDisplay:10.37,2013-04-23 02:52:00,
2013-04-22 16:57:00,77.2,67.0,30.00,SSW,202,1.2,4.6,71,0.00,SCT,BKN,0.08,0.0,WeatherDisplay:10.37,2013-04-23 02:57:00,
2013-04-22 17:02:00,77.2,67.0,30.03,ENE,68,2.4,2.4,71,0.00,SCT,BKN,0.08,0.0,WeatherDisplay:10.37,2013-04-23 03:02:00,
2013-04-22 17:07:00,77.2,67.5,30.03,SW,225,2.9,4.6,72,0.00,SCT,BKN,0.08,0.0,WeatherDisplay:10.37,2013-04-23 03:07:00,
2013-04-22 17:12:00,76.6,66.5,30.03,West,270,3.1,5.8,71,0.00,SCT,BKN,0.08,0.0,WeatherDisplay:10.37,2013-04-23 03:12:00,
2013-04-22 17:17:00,76.8,67.5,30.00,SSW,202,1.4,1.4,73,0.00,SCT,BKN,0.08,0.0,WeatherDisplay:10.37,2013-04-23 03:17:00,
2013-04-22 17:22:00,76.6,66.9,30.00,SSW,202,4.3,4.6,72,0.00,SCT,BKN,0.08,0.0,WeatherDisplay:10.37,2013-04-23 03:22:00,
2013-04-22 17:27:00,76.5,66.4,30.00,SW,225,3.3,5.8,71,0.00,SCT,BKN,0.08,0.0,WeatherDisplay:10.37,2013-04-23 03:27:00,
2013-04-22 17:32:00,76.1,66.4,30.03,SSW,202,1.6,5.8,72,0.00,SCT,BKN,0.08,0.0,WeatherDisplay:10.37,2013-04-23 03:32:00,
2013-04-22 17:37:00,75.9,67.0,30.03,SW,225,3.8,4.9,74,0.00,SCT,BKN,0.08,0.0,WeatherDisplay:10.37,2013-04-23 03:37:00,
2013-04-22 17:42:00,75.9,66.6,30.03,South,180,3.8,4.6,73,0.00,SCT,BKN,0.08,0.0,WeatherDisplay:10.37,2013-04-23 03:42:00,
2013-04-22 17:47:00,75.7,66.5,30.03,SSW,202,2.6,4.6,73,0.00,SCT,BKN,0.08,0.0,WeatherDisplay:10.37,2013-04-23 03:47:00,
2013-04-22 17:52:00,75.6,66.7,30.03,SW,225,0.0,2.6,74,0.00,SCT,BKN,0.08,0.0,WeatherDisplay:10.37,2013-04-23 03:52:00,
2013-04-22 17:57:00,75.6,66.7,30.03,SE,135,0.0,1.2,74,0.00,SCT,BKN,0.08,0.0,WeatherDisplay:10.37,2013-04-23 03:57:00,
2013-04-22 18:01:00,75.6,66.7,30.00,ESE,112,0.0,0.0,74,0.00,SCT,BKN,0.08,0.0,WeatherDisplay:10.37,2013-04-23 04:01:00,
2013-04-22 18:02:00,75.6,66.7,30.00,ESE,112,0.0,0.0,74,0.00,SCT,BKN,0.08,0.0,WeatherDisplay:10.37,2013-04-23 04:02:00,
2013-04-22 18:07:00,75.4,66.5,30.00,West,270,0.9,0.9,74,0.00,SCT,BKN,0.08,0.0,WeatherDisplay:10.37,2013-04-23 04:07:00,
2013-04-22 18:12:00,75.2,66.7,30.00,WNW,292,1.6,2.3,75,0.00,SCT,BKN,0.08,0.0,WeatherDisplay:10.37,2013-04-23 04:12:00,
2013-04-22 18:17:00,75.0,66.9,30.00,SE,135,0.0,0.0,76,0.00,SCT,BKN,0.08,0.0,WeatherDisplay:10.37,2013-04-23 04:17:00,
2013-04-22 18:22:00,74.8,66.8,30.00,SE,135,0.0,0.0,76,0.00,SCT,BKN,0.08,0.0,WeatherDisplay:10.37,2013-04-23 04:22:00,
2013-04-22 18:27:00,74.5,66.8,30.03,SE,135,0.0,0.0,77,0.00,SCT,BKN,0.08,0.0,WeatherDisplay:10.37,2013-04-23 04:27:00,
2013-04-22 18:32:00,74.3,67.0,30.03,SE,135,0.0,1.2,78,0.00,SCT,BKN,0.08,0.0,WeatherDisplay:10.37,2013-04-23 04:32:00,
2013-04-22 18:37:00,73.9,66.6,30.03,SE,135,0.0,0.0,78,0.00,SCT,BKN,0.08,0.0,WeatherDisplay:10.37,2013-04-23 04:37:00,
2013-04-22 18:42:00,73.9,66.6,30.03,SE,135,0.0,0.0,78,0.00,SCT,BKN,0.08,0.0,WeatherDisplay:10.37,2013-04-23 04:42:00,
2013-04-22 18:47:00,73.6,66.7,30.03,SE,135,0.0,0.0,79,0.00,SCT,BKN,0.08,0.0,WeatherDisplay:10.37,2013-04-23 04:47:00,
2013-04-22 18:52:00,73.4,66.5,30.03,SE,135,0.0,0.0,79,0.00,SCT,BKN,0.08,0.0,WeatherDisplay:10.37,2013-04-23 04:52:00,
2013-04-22 18:57:00,72.9,66.3,30.03,SE,135,0.0,0.0,80,0.00,SCT,BKN,0.08,0.0,WeatherDisplay:10.37,2013-04-23 04:57:00,
2013-04-22 19:02:00,72.5,66.3,30.03,SE,135,0.0,0.0,81,0.00,SCT,BKN,0.08,0.0,WeatherDisplay:10.37,2013-04-23 05:02:00,
2013-04-22 19:07:00,72.3,66.5,30.03,SE,135,0.0,0.0,82,0.00,SCT,BKN,0.08,0.0,WeatherDisplay:10.37,2013-04-23 05:07:00,
2013-04-22 19:12:00,72.1,66.7,30.06,SE,135,0.0,1.2,83,0.00,SCT,BKN,0.08,0.0,WeatherDisplay:10.37,2013-04-23 05:12:00,
2013-04-22 19:17:00,72.1,66.7,30.06,SE,135,0.0,0.0,83,0.00,SCT,BKN,0.08,0.0,WeatherDisplay:10.37,2013-04-23 05:17:00,
2013-04-22 19:22:00,72.0,66.9,30.06,SE,135,0.9,1.2,84,0.00,SCT,BKN,0.08,0.0,WeatherDisplay:10.37,2013-04-23 05:22:00,
2013-04-22 19:27:00,71.8,66.7,30.06,SE,135,0.0,0.0,84,0.00,SCT,BKN,0.08,0.0,WeatherDisplay:10.37,2013-04-23 05:27:00,
2013-04-22 19:32:00,71.6,66.8,30.06,SE,135,0.0,0.0,85,0.00,SCT,BKN,0.08,0.0,WeatherDisplay:10.37,2013-04-23 05:32:00,
2013-04-22 19:37:00,71.4,66.7,30.06,SE,135,0.0,0.0,85,0.00,SCT,BKN,0.08,0.0,WeatherDisplay:10.37,2013-04-23 05:37:00,
2013-04-22 19:42:00,71.2,66.8,30.06,SE,135,0.0,0.0,86,0.00,SCT,BKN,0.08,0.0,WeatherDisplay:10.37,2013-04-23 05:42:00,
2013-04-22 19:47:00,71.1,66.7,30.06,SE,135,0.0,0.0,86,0.00,SCT,BKN,0.08,0.0,WeatherDisplay:10.37,2013-04-23 05:47:00,
2013-04-22 19:52:00,70.9,66.8,30.06,SE,135,0.0,0.0,87,0.00,SCT,BKN,0.08,0.0,WeatherDisplay:10.37,2013-04-23 05:52:00,
2013-04-22 19:57:00,70.9,66.8,30.06,SE,135,0.0,0.0,87,0.00,SCT,BKN,0.08,0.0,WeatherDisplay:10.37,2013-04-23 05:57:00,
2013-04-22 20:02:00,70.7,67.0,30.06,SE,135,0.0,0.0,88,0.00,SCT,BKN,0.08,0.0,WeatherDisplay:10.37,2013-04-23 06:02:00,
2013-04-22 20:07:00,70.7,67.0,30.06,SE,135,0.0,0.0,88,0.00,SCT,BKN,0.08,0.0,WeatherDisplay:10.37,2013-04-23 06:07:00,
2013-04-22 20:12:00,70.5,66.8,30.06,SE,135,0.0,0.0,88,0.00,SCT,BKN,0.08,0.0,WeatherDisplay:10.37,2013-04-23 06:12:00,
2013-04-22 20:17:00,70.5,67.1,30.06,SE,135,0.0,0.0,89,0.00,SCT,BKN,0.08,0.0,WeatherDisplay:10.37,2013-04-23 06:17:00,
2013-04-22 20:22:00,70.3,66.9,30.06,SE,135,0.0,0.0,89,0.00,RA,BKN,0.08,0.0,WeatherDisplay:10.37,2013-04-23 06:22:00,
2013-04-22 20:27:00,70.3,66.9,30.06,SE,135,0.0,0.0,89,0.00,RA,BKN,0.08,0.0,WeatherDisplay:10.37,2013-04-23 06:27:00,
2013-04-22 20:32:00,70.3,67.3,30.06,SE,135,0.9,2.3,90,0.00,SCT,BKN,0.08,0.0,WeatherDisplay:10.37,2013-04-23 06:32:00,
2013-04-22 20:37:00,70.3,67.3,30.06,SE,135,0.9,1.2,90,0.00,SCT,BKN,0.08,0.0,WeatherDisplay:10.37,2013-04-23 06:37:00,
2013-04-22 20:42:00,70.3,67.3,30.06,SE,135,0.0,0.0,90,0.00,SCT,BKN,0.08,0.0,WeatherDisplay:10.37,2013-04-23 06:42:00,
2013-04-22 20:47:00,70.3,67.3,30.06,SE,135,0.0,0.0,90,0.00,SCT,BKN,0.08,0.0,WeatherDisplay:10.37,2013-04-23 06:47:00,
2013-04-22 20:52:00,70.3,67.3,30.06,SE,135,0.0,0.0,90,0.00,SCT,BKN,0.08,0.0,WeatherDisplay:10.37,2013-04-23 06:52:00,
2013-04-22 20:57:00,70.3,67.3,30.06,SE,135,0.0,0.0,90,0.00,SCT,BKN,0.08,0.0,WeatherDisplay:10.37,2013-04-23 06:57:00,
2013-04-22 21:02:00,70.3,67.6,30.06,SE,135,0.0,0.0,91,0.00,SCT,BKN,0.08,0.0,WeatherDisplay:10.37,2013-04-23 07:02:00,
2013-04-22 21:07:00,70.2,67.4,30.06,SE,135,0.0,0.0,91,0.00,SCT,BKN,0.08,0.0,WeatherDisplay:10.37,2013-04-23 07:07:00,
2013-04-22 21:12:00,70.2,67.4,30.06,SE,135,0.0,0.0,91,0.00,SCT,BKN,0.08,0.0,WeatherDisplay:10.37,2013-04-23 07:12:00,
2013-04-22 21:17:00,70.2,67.4,30.06,SE,135,0.0,0.0,91,0.00,SCT,BKN,0.08,0.0,WeatherDisplay:10.37,2013-04-23 07:17:00,
2013-04-22 21:22:00,70.2,67.4,30.06,SE,135,0.0,0.0,91,0.00,SCT,BKN,0.08,0.0,WeatherDisplay:10.37,2013-04-23 07:22:00,
2013-04-22 21:27:00,70.2,67.4,30.06,SE,135,0.0,1.2,91,0.00,SCT,BKN,0.08,0.0,WeatherDisplay:10.37,2013-04-23 07:27:00,
2013-04-22 21:32:00,70.2,67.4,30.06,SE,135,1.4,2.3,91,0.00,SCT,BKN,0.08,0.0,WeatherDisplay:10.37,2013-04-23 07:32:00,
2013-04-22 21:37:00,70.0,67.2,30.06,SE,135,0.0,0.0,91,0.00,SCT,BKN,0.08,0.0,WeatherDisplay:10.37,2013-04-23 07:37:00,
2013-04-22 21:42:00,70.0,67.2,30.06,SE,135,0.0,0.0,91,0.00,SCT,BKN,0.08,0.0,WeatherDisplay:10.37,2013-04-23 07:42:00,
2013-04-22 21:47:00,70.0,67.5,30.06,SE,135,0.0,0.0,92,0.00,SCT,BKN,0.08,0.0,WeatherDisplay:10.37,2013-04-23 07:47:00,
2013-04-22 21:52:00,70.0,67.5,30.06,SE,135,0.0,0.0,92,0.00,SCT,BKN,0.08,0.0,WeatherDisplay:10.37,2013-04-23 07:52:00,
2013-04-22 21:57:00,70.0,67.9,30.06,SE,135,0.0,0.0,93,0.00,SCT,BKN,0.08,0.0,WeatherDisplay:10.37,2013-04-23 07:57:00,
2013-04-22 22:02:00,70.0,67.9,30.06,SE,135,0.0,0.0,93,0.00,SCT,BKN,0.08,0.0,WeatherDisplay:10.37,2013-04-23 08:02:00,
2013-04-22 22:07:00,70.0,67.9,30.06,SE,135,0.0,0.0,93,0.00,SCT,BKN,0.08,0.0,WeatherDisplay:10.37,2013-04-23 08:07:00,
2013-04-22 22:12:00,70.0,67.9,30.06,SE,135,0.0,0.0,93,0.00,SCT,BKN,0.08,0.0,WeatherDisplay:10.37,2013-04-23 08:12:00,
2013-04-22 22:17:00,70.0,67.9,30.06,SE,135,0.0,0.0,93,0.00,SCT,BKN,0.08,0.0,WeatherDisplay:10.37,2013-04-23 08:17:00,
2013-04-22 22:22:00,70.0,67.9,30.06,SE,135,0.9,1.2,93,0.00,SCT,BKN,0.08,0.0,WeatherDisplay:10.37,2013-04-23 08:22:00,
2013-04-22 22:27:00,70.0,67.9,30.06,SE,135,0.0,0.0,93,0.00,SCT,BKN,0.08,0.0,WeatherDisplay:10.37,2013-04-23 08:27:00,
2013-04-22 22:32:00,70.2,68.0,30.06,SE,135,0.0,0.0,93,0.00,SCT,BKN,0.08,0.0,WeatherDisplay:10.37,2013-04-23 08:32:00,
2013-04-22 22:37:00,70.2,68.0,30.06,SE,135,1.4,2.3,93,0.00,SCT,BKN,0.08,0.0,WeatherDisplay:10.37,2013-04-23 08:37:00,
2013-04-22 22:42:00,70.2,68.0,30.06,SE,135,0.9,1.2,93,0.00,SCT,BKN,0.08,0.0,WeatherDisplay:10.37,2013-04-23 08:42:00,
2013-04-22 22:47:00,70.2,68.0,30.06,SE,135,0.0,0.0,93,0.00,SCT,BKN,0.08,0.0,WeatherDisplay:10.37,2013-04-23 08:47:00,
2013-04-22 22:52:00,70.0,67.9,30.06,SE,135,0.0,1.2,93,0.00,SCT,BKN,0.08,0.0,WeatherDisplay:10.37,2013-04-23 08:52:00,
2013-04-22 22:57:00,70.0,67.9,30.06,SE,135,0.0,2.3,93,0.00,SCT,BKN,0.08,0.0,WeatherDisplay:10.37,2013-04-23 08:57:00,
2013-04-22 23:03:00,70.0,67.9,30.06,SE,135,0.9,2.0,93,0.00,SCT,BKN,0.08,0.0,WeatherDisplay:10.37,2013-04-23 09:03:00,
2013-04-22 23:08:00,70.0,67.9,30.06,SE,135,0.0,2.0,93,0.00,SCT,BKN,0.08,0.0,WeatherDisplay:10.37,2013-04-23 09:08:00,
2013-04-22 23:13:00,70.2,68.4,30.06,SE,135,0.0,0.0,94,0.00,SCT,BKN,0.08,0.0,WeatherDisplay:10.37,2013-04-23 09:13:00,
2013-04-22 23:18:00,70.0,68.2,30.06,SE,135,0.0,0.0,94,0.00,SCT,BKN,0.08,0.0,WeatherDisplay:10.37,2013-04-23 09:18:00,
2013-04-22 23:23:00,70.0,68.2,30.06,SE,135,0.9,1.2,94,0.00,SCT,BKN,0.08,0.0,WeatherDisplay:10.37,2013-04-23 09:23:00,
2013-04-22 23:28:00,70.0,68.2,30.09,SE,135,0.0,0.0,94,0.00,SCT,BKN,0.08,0.0,WeatherDisplay:10.37,2013-04-23 09:28:00,
2013-04-22 23:33:00,70.0,68.2,30.09,SE,135,0.0,1.6,94,0.00,SCT,BKN,0.08,0.0,WeatherDisplay:10.37,2013-04-23 09:33:00,
2013-04-22 23:38:00,70.0,68.2,30.09,SE,135,0.0,0.0,94,0.00,SCT,BKN,0.08,0.0,WeatherDisplay:10.37,2013-04-23 09:38:00,
2013-04-22 23:43:00,70.2,68.4,30.06,SE,135,0.0,0.0,94,0.00,SCT,BKN,0.08,0.0,WeatherDisplay:10.37,2013-04-23 09:43:00,
2013-04-22 23:48:00,70.2,68.4,30.06,SE,135,0.0,0.0,94,0.00,SCT,BKN,0.08,0.0,WeatherDisplay:10.37,2013-04-23 09:48:00,
2013-04-22 23:53:00,70.2,68.4,30.06,SE,135,0.0,0.0,94,0.00,SCT,BKN,0.08,0.0,WeatherDisplay:10.37,2013-04-23 09:53:00,
2013-04-22 23:58:00,70.3,68.5,30.06,SE,135,0.0,0.0,94,0.00,SCT,BKN,0.08,0.0,WeatherDisplay:10.37,2013-04-23 09:58:00,